Regional Weather Roundup
Issued by NWS Charleston, WV

Home | Current Version | Previous Version | Graphics & Text | Print | Product List | Glossary On
Versions: 1 2 3 4 5 6 7 8 9 10 11 12 13 14 15 16 17 18 19 20 21 22 23 24 25 26 27 28 29 30 31 32 33 34 35 36 37 38 39 40 41 42 43 44 45 46 47 48 49 50
000
ASUS41 KRLX 032310
RWRRLX
West Virginia Regional Weather Roundup
National Weather Service Charleston WV
700 PM EDT FRI JUL 03 2015

Note: "fair" indicates few or no clouds below 12,000 feet with no
significant weather and/or obstructions to visibility.

WVZ003-040000-
Northern Panhandle of West Virginia

CITY           SKY/WX    TMP DP  RH WIND       PRES   REMARKS
WHEELING       CLOUDY    68  62  81 NE8       29.89F
$$

WVZ009-040000-
Northwest West Virginia

CITY           SKY/WX    TMP DP  RH WIND       PRES   REMARKS
PARKERSBURG    CLOUDY    68  65  90 NE7       29.88F
$$

WVZ006-040000-
Western West Virginia

CITY           SKY/WX    TMP DP  RH WIND       PRES   REMARKS
HUNTINGTON     TSTM      72  70  93 W3        29.84S
$$

WVZ015-040000-
West Central West Virginia

CITY           SKY/WX    TMP DP  RH WIND       PRES   REMARKS
CHARLESTON     CLOUDY    75  69  81 CALM      29.85F
$$

WVZ022-031-040000-
North Central West Virginia

CITY           SKY/WX    TMP DP  RH WIND       PRES   REMARKS
CLARKSBURG     CLOUDY    71  66  84 CALM      29.87F
MORGANTOWN     CLOUDY    70  64  81 VRB3      29.89F
$$

WVZ025-035-042-045-040000-
Southern West Virginia

CITY           SKY/WX    TMP DP  RH WIND       PRES   REMARKS
BECKLEY        LGT RAIN  68  65  90 SE8       29.95S
LOGAN            N/A     73  68  83 VRB6      29.86R
BLUEFIELD      LGT RAIN  70  64  81 CALM      29.98R
LEWISBURG      DRIZZLE   67  64  89 CALM      29.98R
$$

WVZ047-040000-
Northern Mountains of West Virginia

CITY           SKY/WX    TMP DP  RH WIND       PRES   REMARKS
ELKINS         CLOUDY    71  60  68 S8        29.93F
$$

WVZ052-040000-
Eastern Panhandle of West Virginia

CITY           SKY/WX    TMP DP  RH WIND       PRES   REMARKS
MARTINSBURG    CLOUDY    73  64  73 S7        29.95S
PETERSBURG     CLOUDY    67  62  83 CALM      29.95F
$$



USA.gov is the U.S. government's official web portal to all federal, state and local government web resources and services.